This demonstration page uses our WeatherBlox Daily Observations layout. Learn more.

Left ArrowRight Arrow

39.29038, -76.61219

Hourly Observations for January 14, 2017

Temp ( °F °C ) Dew Point ( °F °C ) Humidity (%) Winds ( mph kmh ) Pressure ( in mb ) Visibility ( mi km ) Precip ( " mm )
12:54 am 00:54 undefined 41 5 19 -7.2 41 41 undefined N/A 30.68 1039 N/A 0.00 0.00
1:54 am 01:54 undefined 40 4.4 17 -8.3 40 40 undefined N/A 30.66 1038 N/A 0.00 0.00
2:54 am 02:54 undefined 39 3.9 16 -8.9 39 39 undefined N/A 30.68 1039 N/A 0.00 0.00
3:54 am 03:54 undefined 38 3.3 17 -8.3 43 43 undefined N/A 30.68 1039 N/A 0.00 0.00
4:54 am 04:54 undefined 37 2.8 15 -9.4 41 41 undefined N/A 30.67 1039 N/A 0.00 0.00
5:54 am 05:54 undefined 36 2.2 15 -9.4 42 42 undefined N/A 30.65 1038 N/A 0.00 0.00
6:54 am 06:54 undefined 36 2.2 16 -8.9 44 44 undefined N/A 30.66 1038 N/A 0.00 0.00
7:54 am 07:54 undefined 35 1.7 17 -8.3 48 48 undefined N/A 30.66 1038 N/A 0.00 0.00
8:54 am 08:54 undefined 34 1.1 20 -6.7 56 56 undefined N/A 30.65 1038 N/A 0.01 0.25
9:54 am 09:54 undefined 35 1.7 20 -6.7 54 54 undefined N/A 30.67 1039 N/A 0.00 0.00
10:54 am 10:54 undefined 35 1.7 21 -6.1 57 57 undefined N/A 30.64 1038 N/A 0.00 0.00
11:54 am 11:54 undefined 35 1.7 23 -5 61 61 undefined N/A 30.57 1035 N/A 0.00 0.00
12:54 pm 12:54 undefined 33 0.6 27 -2.8 78 78 undefined N/A 30.53 1034 N/A 0.02 0.51
1:54 pm 13:54 undefined 33 0.6 28 -2.2 82 82 undefined N/A 30.50 1033 N/A 0.01 0.25
2:54 pm 14:54 undefined 33 0.6 29 -1.7 85 85 undefined N/A 30.49 1032 N/A 0.01 0.25
3:54 pm 15:54 undefined 33 0.6 29 -1.7 85 85 undefined N/A 30.45 1031 N/A 0.00 0.00
4:54 pm 16:54 undefined 33 0.6 28 -2.2 82 82 undefined N/A 30.44 1031 N/A 0.01 0.25
5:54 pm 17:54 undefined 33 0.6 29 -1.7 85 85 undefined N/A 30.42 1030 N/A 0.02 0.51
6:54 pm 18:54 undefined 33 0.6 29 -1.7 85 85 undefined N/A 30.40 1030 N/A 0.05 1.27
7:54 pm 19:54 undefined 34 1.1 30 -1.1 85 85 undefined N/A 30.40 1030 N/A 0.06 1.52
8:54 pm 20:54 undefined 34 1.1 30 -1.1 85 85 undefined N/A 30.39 1029 N/A 0.03 0.76
9:54 pm 21:54 undefined 34 1.1 30 -1.1 85 85 undefined N/A 30.37 1028 N/A 0.00 0.00
10:54 pm 22:54 undefined 35 1.7 31 -0.6 85 85 undefined N/A 30.37 1028 N/A 0.00 0.00
11:54 pm 23:54 undefined 35 1.7 31 -0.6 85 85 undefined N/A 30.34 1028 N/A 0.00 0.00

Powered by AerisWeather